[[{"header":{"parameterUnit":"m.s-1","parameterCategory":1,"la1":30.2991,"la2":30.254,"lo1":-89.0895,"lo2":-89.0444,"dy":0.0017,"dx":0.0017,"nx":28,"ny":28,"refTime":"2023-08-05T09:00:00:Z","depth":0,"parameterNumber":2,"parameterNumberName":"U-component_of_WINDS"},"data":[0,0,0,0,0,0,0,0,0,0,0,0,0,0,0,0,0,0,0,0,0,0,0,0,0,0,0,0,0,0,0,0,0,0,0,0,0,0,0,0,0,0,0,0,0,0,0,0,0,0,0,0,0,0,0,0,0,0,6.3306,6.3308,0,6.348,6.3481,6.3483,6.3403,6.3398,6.3394,6.339,6.3569,6.3578,6.3587,0,0,0,0,0,0,0,0,0,0,0,0,0,6.2906,6.2914,6.3306,6.3308,6.331,6.3479,6.3482,6.3484,6.3403,6.3398,6.3393,6.3388,6.3566,6.3577,6.3587,0,0,0,0,0,0,0,0,0,0,0,0,0,6.308,6.2916,6.3306,6.329,6.3291,6.3479,6.3482,6.3485,6.3405,6.3398,6.3391,6.3385,6.3563,6.3576,6.3589,6.3802,0,0,6.363,6.3635,0,0,0,0,0,0,0,0,6.307,6.3094,6.3291,6.3292,6.3293,6.3413,6.3406,6.3591,6.3406,6.3362,6.339,6.3382,6.3523,6.3539,6.3586,6.3811,6.3818,6.3631,6.3639,6.3644,6.3648,0,0,0,0,0,0,0,6.3058,6.3086,6.3375,6.3293,6.3295,6.3275,6.3293,6.3441,6.3477,6.3365,6.3359,6.3381,6.3522,6.3573,6.3589,6.3821,6.363,6.3642,6.365,6.3655,6.4228,6.4235,0,0,0,0,0,0,6.3046,6.3077,6.3369,6.338,6.3163,6.3288,6.3307,6.3381,6.3475,6.3483,6.3386,6.3377,6.3554,6.3574,6.3595,6.385,6.3644,6.3657,6.3664,6.4221,6.423,6.4238,0,0,0,0,0,0,6.3038,6.3073,6.3362,6.3227,6.3262,6.3302,6.3385,6.3388,6.3439,6.3491,6.3497,6.3432,6.3549,6.3577,6.3751,6.3855,6.3663,6.3675,6.4213,6.4224,6.4234,6.4363,0,0,0,0,0,0,6.3027,6.307,6.3152,6.3229,6.327,6.3515,6.3391,6.3396,6.3462,6.3451,6.3536,6.3544,6.3546,6.3732,6.3764,6.387,6.3685,6.4203,6.4218,6.423,6.4349,6.4376,6.44,0,0,0,0,0,6.3013,6.3182,6.3156,6.3192,6.3372,6.3521,6.3544,6.3543,6.3471,6.3553,6.3586,6.3541,6.3839,6.375,6.3786,6.3898,6.4197,6.4214,6.4229,6.4338,6.4371,6.4399,0,0,0,0,0,0,6.3117,6.3192,6.3164,6.3364,6.3437,6.3507,6.3611,6.3579,6.3675,6.366,6.3656,6.3676,6.3856,6.3894,6.3794,6.4108,6.4007,6.4031,6.4077,6.4109,6.4134,6.412,6.3696,0,0,0,0,0,6.3162,6.3277,6.3336,6.3507,6.3544,6.3572,6.3636,6.3629,6.3705,6.3736,6.3782,6.3857,6.3967,6.404,6.4145,6.4354,6.4371,6.4449,6.4474,6.4495,6.4516,6.4628,6.4663,6.4291,6.4291,6.4291,0,0,6.3259,6.3314,6.3387,6.3529,6.3584,6.3703,6.3598,6.3728,6.3816,6.3755,6.3922,6.3959,6.4043,6.4235,6.4322,6.4273,6.4622,6.4516,6.4532,6.4541,6.4648,6.4683,6.4715,6.4302,6.43,6.4299,0,0,6.3495,6.3548,6.3695,6.3753,6.3838,6.3855,6.389,6.3966,6.3987,6.4155,6.4111,6.4216,6.4407,6.4467,6.4524,6.4782,6.4743,6.4816,6.4948,6.5058,6.5087,6.5113,6.5204,6.5236,6.4837,6.4837,6.4837,0,6.3604,6.378,6.3775,6.3908,6.3971,6.3921,6.407,6.4126,6.4242,6.4287,6.4229,6.4467,6.452,6.4725,6.4788,6.4835,6.4875,6.4806,6.5083,6.5109,6.5133,6.522,6.5254,6.4845,6.4844,6.4843,6.4843,0,6.3909,6.4032,6.4141,6.4252,6.4328,6.4468,6.4485,6.4562,6.4548,6.4571,6.4742,6.4803,6.4919,6.4967,6.4956,6.5171,6.5137,6.5082,6.4979,6.5177,6.5258,6.5291,6.4857,6.4854,6.4852,6.485,0,0,6.4216,6.4322,6.4362,6.4411,6.4501,6.4596,6.4734,6.4846,6.4912,6.4993,6.5108,6.527,6.5219,6.5282,6.5277,6.5374,6.5572,6.5306,6.5308,6.5352,6.5812,6.5852,6.5891,6.5548,6.5554,6.5559,6.5804,0,6.4457,6.4698,6.4697,6.4919,6.5032,6.4985,6.5105,6.5173,6.5198,6.5298,6.5325,6.544,6.5364,6.5402,6.5495,6.5528,6.5664,6.5511,6.5654,6.5659,6.5633,6.5933,6.5977,6.6206,6.5836,6.5842,6.5846,0,6.4771,6.4861,6.5094,6.5166,6.5214,6.5321,6.5423,6.5519,6.5595,6.5606,6.5677,6.5657,6.5797,6.569,6.5883,6.5778,6.5837,6.5862,6.5871,6.5883,6.5764,6.5953,6.6279,6.6312,6.5896,6.5892,6.5888,0,6.497,6.515,6.5312,6.5356,6.5444,6.5521,6.5561,6.5631,6.5698,6.5787,6.583,6.5935,6.5993,6.6075,6.6083,6.6005,6.6277,6.6171,6.6289,6.6289,6.6348,6.6344,6.6686,6.6388,6.6387,6.6387,6.6386,0,6.5239,6.5383,6.5402,6.5502,6.5662,6.5659,6.5818,6.5852,6.5914,6.6019,6.5986,6.6086,6.6091,6.6194,6.6201,6.6359,6.6385,6.6398,6.6398,6.64,6.6399,6.6438,6.6422,6.6396,6.6394,6.6392,6.6391,0,6.5488,6.5506,6.568,6.5749,6.5769,6.5884,6.5943,6.6038,6.6059,6.6193,6.6224,6.6258,6.6377,6.6393,6.6533,6.6538,6.6726,6.6711,6.67,6.6698,6.6814,6.6803,6.7193,6.7244,6.6914,6.6917,6.6919,0,6.5658,6.5767,6.5848,6.5915,6.596,6.607,6.6137,6.6139,6.6211,6.6305,6.6389,6.6504,6.6596,6.6787,6.6824,6.693,6.6916,6.7046,6.6932,6.693,6.6917,6.6909,6.692,6.7067,6.7071,6.7074,6.7076,0,6.5958,6.5961,6.6059,6.6162,6.6243,6.6324,6.64,6.6457,6.6468,6.6551,6.6671,6.6742,6.6884,6.6998,6.7103,6.7144,6.7113,6.7112,6.7144,6.7148,6.7136,6.7143,6.6759,6.7103,6.71,6.7098,6.7097,6.7096,6.6172,6.6266,6.6337,6.6447,6.6504,6.6576,6.6668,6.67,6.68,6.6914,6.691,6.7042,6.7114,6.7251,6.73,6.7403,6.736,6.7408,6.742,6.7432,6.7442,6.7121,6.7422,6.7421,6.7421,6.742,6.742,0,6.6468,6.6511,6.6613,6.6719,6.6806,6.6768,6.6849,6.6925,6.7041,6.7111,6.7201,6.7339,6.7449,6.7495,6.7603,6.7677,6.7665,6.7705,6.7699,6.7709,6.7475,6.7435,6.7713,6.7713,6.7712,6.7712,6.7712,6.7712,6.6633,6.679,6.6802,6.6987,6.7029,6.7157,6.7207,6.7272,6.7327,6.7482,6.7573,6.7602,6.7662,6.7773,6.7873,6.7883,6.7924,6.7971,6.7975,6.7755,6.7725,6.7697,6.766,6.798,6.798,6.82,6.8202,6.8203]},{"header":{"parameterUnit":"m.s-1","parameterCategory":1,"la1":30.2991,"la2":30.254,"lo1":-89.0895,"lo2":-89.0444,"dy":0.0017,"dx":0.0017,"nx":28,"ny":28,"refTime":"2023-08-05T09:00:00:Z","depth":0,"parameterNumber":3,"parameterNumberName":"V-component_of_WINDS"},"data":[0,0,0,0,0,0,0,0,0,0,0,0,0,0,0,0,0,0,0,0,0,0,0,0,0,0,0,0,0,0,0,0,0,0,0,0,0,0,0,0,0,0,0,0,0,0,0,0,0,0,0,0,0,0,0,0,0,0,-0.0196,-0.0196,0,-0.0161,-0.016,-0.016,-0.018,-0.0181,-0.0182,-0.0183,-0.0143,-0.0141,-0.0139,0,0,0,0,0,0,0,0,0,0,0,0,0,-0.0279,-0.0278,-0.0196,-0.0196,-0.0196,-0.0161,-0.016,-0.016,-0.018,-0.0182,-0.0183,-0.0184,-0.0144,-0.0142,-0.0139,0,0,0,0,0,0,0,0,0,0,0,0,0,-0.0243,-0.0277,-0.0196,-0.0202,-0.0202,-0.0161,-0.016,-0.016,-0.018,-0.0182,-0.0183,-0.0184,-0.0145,-0.0142,-0.0139,-0.009,0,0,-0.013,-0.0128,0,0,0,0,0,0,0,0,-0.0245,-0.024,-0.0201,-0.0201,-0.0201,-0.0177,-0.0175,-0.0136,-0.018,-0.0188,-0.0183,-0.0185,-0.0153,-0.0149,-0.0139,-0.0088,-0.0086,-0.0129,-0.0128,-0.0126,-0.0125,0,0,0,0,0,0,0,-0.0248,-0.0242,-0.0182,-0.0201,-0.0201,-0.0205,-0.0201,-0.0168,-0.0162,-0.0188,-0.0189,-0.0185,-0.0153,-0.0142,-0.0138,-0.0086,-0.013,-0.0127,-0.0125,-0.0124,0.0007,0.0009,0,0,0,0,0,0,-0.025,-0.0244,-0.0183,-0.0181,-0.0228,-0.0202,-0.0198,-0.0183,-0.0163,-0.0161,-0.0183,-0.0186,-0.0147,-0.0142,-0.0137,-0.0078,-0.0126,-0.0124,-0.0122,0.0006,0.0008,0.001,0,0,0,0,0,0,-0.0252,-0.0245,-0.0185,-0.0213,-0.0206,-0.0199,-0.0182,-0.0181,-0.017,-0.016,-0.0159,-0.0173,-0.0148,-0.0141,-0.0102,-0.0077,-0.0122,-0.0119,0.0004,0.0006,0.0009,0.004,0,0,0,0,0,0,-0.0254,-0.0245,-0.0227,-0.0212,-0.0204,-0.0151,-0.018,-0.018,-0.0166,-0.0168,-0.015,-0.0148,-0.0148,-0.0106,-0.0099,-0.0074,-0.0117,0.0002,0.0005,0.0008,0.0037,0.0043,0.0049,0,0,0,0,0,-0.0257,-0.0219,-0.0226,-0.0219,-0.0181,-0.0149,-0.0144,-0.0146,-0.0164,-0.0145,-0.0138,-0.0149,-0.0081,-0.0102,-0.0094,-0.0067,0.0,0.0004,0.0008,0.0034,0.0042,0.0049,0,0,0,0,0,0,-0.023,-0.0217,-0.0225,-0.0181,-0.0166,-0.0153,-0.0129,-0.0138,-0.0117,-0.012,-0.0122,-0.0118,-0.0077,-0.0068,-0.0092,-0.0019,-0.0043,-0.0038,-0.0026,-0.0018,-0.0012,-0.0014,-0.0115,0,0,0,0,0,-0.0219,-0.0195,-0.0185,-0.0147,-0.0139,-0.0135,-0.0121,-0.0124,-0.0109,-0.0102,-0.0092,-0.0076,-0.0051,-0.0034,-0.0011,0.0037,0.0042,0.0059,0.0065,0.007,0.0076,0.0102,0.0111,0.0022,0.0022,0.0022,0,0,-0.0195,-0.0185,-0.017,-0.0141,-0.013,-0.0104,-0.013,-0.0101,-0.0082,-0.0097,-0.006,-0.0052,-0.0034,0.0011,0.0031,0.0019,0.0101,0.0075,0.0079,0.0082,0.0107,0.0115,0.0123,0.0025,0.0024,0.0024,0,0,-0.0139,-0.013,-0.0097,-0.0086,-0.0069,-0.0067,-0.0059,-0.0045,-0.0041,-0.0003,-0.0015,0.0009,0.0052,0.0065,0.0078,0.0138,0.0129,0.0146,0.0178,0.0203,0.021,0.0217,0.0239,0.0247,0.0151,0.0151,0.0151,0,-0.0111,-0.0074,-0.0079,-0.0049,-0.0036,-0.0051,-0.0017,-0.0006,0.0018,0.0028,0.0014,0.0067,0.0079,0.0126,0.014,0.0151,0.016,0.0144,0.021,0.0216,0.0222,0.0243,0.0251,0.0153,0.0152,0.0152,0.0152,0,-0.004,-0.0014,0.0011,0.0033,0.0049,0.008,0.0081,0.0097,0.0093,0.0096,0.0135,0.0148,0.0173,0.0184,0.018,0.0231,0.0223,0.0209,0.0186,0.0232,0.0252,0.026,0.0155,0.0155,0.0154,0.0154,0,0,0.0036,0.0054,0.0063,0.0073,0.009,0.011,0.0141,0.0165,0.018,0.0197,0.0223,0.0259,0.0246,0.026,0.0258,0.028,0.0328,0.0264,0.0264,0.0276,0.0385,0.0396,0.0406,0.0321,0.0323,0.0324,0.0384,0,0.0094,0.0147,0.0143,0.0193,0.0218,0.0203,0.023,0.0244,0.0248,0.027,0.0274,0.03,0.0281,0.0289,0.0311,0.0317,0.035,0.0313,0.0347,0.0348,0.0344,0.0416,0.0428,0.0484,0.0392,0.0393,0.0394,0,0.0169,0.0187,0.024,0.0252,0.0262,0.0287,0.0308,0.0329,0.0344,0.0345,0.036,0.0354,0.0386,0.0359,0.0404,0.0379,0.0392,0.0397,0.04,0.0404,0.0375,0.0424,0.0502,0.0511,0.0406,0.0405,0.0404,0,0.0221,0.0258,0.0294,0.0303,0.0318,0.0336,0.0343,0.0357,0.0371,0.039,0.04,0.0422,0.0435,0.0453,0.0453,0.0434,0.0499,0.0472,0.0502,0.0502,0.0517,0.0517,0.06,0.0524,0.0524,0.0523,0.0523,0,0.0287,0.032,0.0318,0.034,0.0377,0.0372,0.0408,0.0414,0.0426,0.045,0.0439,0.0461,0.0459,0.0483,0.0483,0.052,0.0526,0.0528,0.0528,0.053,0.053,0.054,0.0537,0.0526,0.0525,0.0525,0.0524,0,0.0352,0.0351,0.039,0.0401,0.0404,0.0431,0.044,0.0462,0.0464,0.0495,0.0501,0.0506,0.0532,0.0533,0.0565,0.0565,0.061,0.0605,0.0605,0.0604,0.0634,0.0632,0.0729,0.0741,0.0655,0.0656,0.0657,0,0.0395,0.0419,0.0432,0.0447,0.0455,0.0479,0.0493,0.0489,0.0505,0.0523,0.0543,0.0568,0.0588,0.0632,0.0638,0.0662,0.0658,0.069,0.0662,0.0663,0.066,0.0659,0.0662,0.0697,0.0698,0.0698,0.0699,0,0.0471,0.0469,0.049,0.0511,0.0528,0.0544,0.0559,0.0572,0.0569,0.0588,0.0614,0.063,0.066,0.0686,0.0709,0.0718,0.0709,0.0707,0.0716,0.0719,0.0718,0.072,0.0621,0.0706,0.0705,0.0705,0.0704,0.0704,0.0527,0.0548,0.0561,0.0584,0.0594,0.0609,0.0629,0.0634,0.0655,0.0679,0.0676,0.0705,0.072,0.0749,0.0759,0.0783,0.0772,0.0784,0.0787,0.0791,0.0794,0.0713,0.0787,0.0787,0.0787,0.0787,0.0787,0,0.0604,0.061,0.0632,0.0653,0.0671,0.0659,0.0675,0.0691,0.0717,0.0731,0.075,0.0781,0.0805,0.0813,0.0837,0.0855,0.0851,0.0861,0.0861,0.0863,0.0802,0.0793,0.0864,0.0864,0.0864,0.0864,0.0864,0.0864,0.0646,0.0681,0.0681,0.0722,0.0729,0.0757,0.0767,0.078,0.0791,0.0825,0.0845,0.0849,0.0861,0.0885,0.0908,0.0909,0.0919,0.0931,0.0932,0.0875,0.0867,0.086,0.0851,0.0933,0.0933,0.0991,0.0991,0.0991]}]]